GW2918 Weather Reports


Display with metric or nautical units.
time (UTC)temp
F
wind
direction
speed
MPH
gust
MPH
rain 1hr
in
rain 24hr
in
rain mn
in
humidity
%
barometer
mb
20260508235438 49 167 2.0 3.0 0.00 0.10 0.10 85 1010.9
20260508234437 50 153 2.0 4.0 0.00 0.10 0.10 83 1010.9
20260508233434 50 131 2.0 9.0 0.00 0.10 0.10 81 1011.2
20260508232433 50 154 0.0 2.0 0.00 0.10 0.10 81 1011.0
20260508231433 50 157 1.0 4.0 0.00 0.10 0.10 81 1011.0
20260508230432 50 196 6.0 6.0 0.00 0.10 0.10 80 1011.0
20260508225432 51 133 1.0 3.0 0.00 0.10 0.10 80 1010.8
20260508224427 52 182 2.0 5.0 0.00 0.10 0.10 79 1010.6
20260508223422 53 84 3.0 3.0 0.00 0.10 0.10 77 1010.9
20260508222422 51 207 3.0 5.0 0.00 0.10 0.10 78 1010.7
20260508221420 51 184 4.0 6.0 0.00 0.10 0.10 77 1010.9
20260508220419 52 135 6.0 7.0 0.00 0.10 0.10 73 1010.7
20260508215418 52 137 1.0 5.0 0.00 0.10 0.10 78 1011.0
20260508214419 53 186 5.0 5.0 0.00 0.10 0.10 75 1010.9
20260508213418 52 154 2.0 5.0 0.00 0.10 0.10 72 1010.8
20260508212416 52 134 3.0 4.0 0.00 0.10 0.10 77 1011.1
20260508211413 51 136 2.0 5.0 0.00 0.10 0.10 79 1010.9
20260508210413 51 137 2.0 7.0 0.00 0.10 0.10 83 1011.2
20260508205413 49 153 2.0 6.0 0.00 0.10 0.10 87 1011.5
20260508204412 49 126 2.0 5.0 0.02 0.10 0.10 89 1011.6
20260508203410 48 216 2.0 3.0 0.02 0.09 0.09 86 1011.8
20260508202409 49 7 2.0 3.0 0.02 0.09 0.09 83 1011.8
20260508201408 50 301 0.0 1.0 0.00 0.09 0.09 78 1011.4
20260508200408 51 27 1.0 4.0 0.00 0.09 0.09 72 1011.2
20260508195406 51 57 3.0 5.0 0.02 0.09 0.09 70 1011.4
20260508194406 53 0 1.0 4.0 0.00 0.08 0.08 70 1011.1
20260508193405 55 60 5.0 6.0 0.00 0.08 0.08 67 1011.4
20260508192404 53 330 3.0 4.0 0.00 0.08 0.08 71 1011.5
20260508191359 50 311 1.0 3.0 0.00 0.08 0.08 72 1011.7
20260508190358 50 55 2.0 4.0 0.00 0.08 0.08 76 1011.8
20260508185358 51 327 4.0 9.0 0.00 0.08 0.08 77 1011.8
20260508184353 51 139 0.0 5.0 0.00 0.08 0.08 75 1011.7
20260508183351 50 348 4.0 6.0 0.00 0.08 0.08 81 1011.9
20260508182350 50 96 5.0 5.0 0.00 0.08 0.08 81 1012.0
20260508181349 50 36 3.0 8.0 0.00 0.08 0.08 85 1012.3
20260508180348 50 257 3.0 3.0 0.00 0.08 0.08 86 1012.0
20260508175347 47 338 4.0 8.0 0.02 0.08 0.08 90 1012.5
20260508174342 48 282 6.0 6.0 0.00 0.08 0.08 84 1012.4
20260508173342 50 275 4.0 5.0 0.00 0.08 0.08 83 1012.4
20260508172341 49 290 0.0 9.0 0.00 0.08 0.08 87 1012.1
20260508171339 48 291 4.0 5.0 0.00 0.08 0.08 91 1012.1
20260508170334 46 350 3.0 4.0 0.02 0.08 0.08 95 1012.6
20260508165333 45 8 2.0 5.0 0.00 0.07 0.07 97 1012.7
20260508164331 44 19 3.0 5.0 0.00 0.07 0.07 97 1012.6
20260508163327 44 356 4.0 4.0 0.00 0.07 0.07 97 1012.6
20260508162325 43 6 1.0 3.0 0.02 0.07 0.07 97 1012.6
20260508161325 44 19 2.0 3.0 0.19 0.07 0.07 95 1012.8
20260508160322 45 292 8.0 11.0 0.05 0.04 0.04 87 1012.6
20260508155321 46 10 3.0 5.0 0.00 0.03 0.03 83 1012.0
20260508154315 49 278 2.0 4.0 0.00 0.03 0.03 81 1011.8
20260508153314 47 309 6.0 6.0 0.00 0.03 0.03 85 1011.8
20260508152312 46 29 2.0 4.0 0.00 0.03 0.03 85 1011.7
20260508151311 45 309 4.0 9.0 0.00 0.03 0.03 84 1012.1
20260508150310 46 327 4.0 10.0 0.00 0.03 0.03 84 1012.1
20260508145308 47 220 0.0 6.0 0.00 0.03 0.03 86 1012.0
20260508144303 47 119 4.0 9.0 0.00 0.03 0.03 83 1012.1
20260508143303 46 215 2.0 7.0 0.00 0.03 0.03 88 1012.1
20260508142306 45 304 2.0 10.0 0.00 0.03 0.03 88 1012.0
20260508141302 43 87 1.0 5.0 0.00 0.03 0.03 93 1012.3
20260508140302 43 208 5.0 5.0 0.00 0.03 0.03 93 1012.0
20260508135300 42 263 1.0 3.0 0.00 0.03 0.03 94 1012.4
20260508134259 42 202 5.0 7.0 0.00 0.03 0.03 96 1012.1
20260508133259 40 178 5.0 6.0 0.00 0.03 0.03 99 1012.1
20260508132300 39 95 3.0 6.0 0.00 0.03 0.03 99 1012.5
20260508131257 38 170 3.0 5.0 0.00 0.03 0.03 99 1012.7
20260508130258 39 103 2.0 4.0 0.02 0.03 0.03 99 1012.6
20260508125255 38 112 3.0 4.0 0.02 0.03 0.03 99 1012.8
20260508124250 38 164 1.0 4.0 0.00 0.02 0.02 99 1012.4
20260508123246 38 96 3.0 5.0 0.00 0.02 0.02 99 1012.4
20260508122245 38 94 1.0 3.0 0.00 0.02 0.02 99 1012.5
20260508121241 37 89 2.0 3.0 0.00 0.02 0.02 99 1012.5
20260508120236 37 109 4.0 4.0 0.00 0.02 0.02 99 1012.4
20260508115231 37 133 4.0 5.0 0.00 0.02 0.02 99 1012.5
20260508114229 37 125 1.0 4.0 0.00 0.02 0.02 99 1012.3
20260508113225 36 130 3.0 3.0 0.00 0.02 0.02 99 1012.3
20260508112223 36 110 2.0 3.0 0.00 0.02 0.02 99 1012.3
20260508111218 35 76 2.0 3.0 0.00 0.02 0.02 99 1012.4
20260508110218 33 79 2.0 3.0 0.00 0.02 0.02 99 1012.3
20260508105214 34 78 5.0 5.0 0.00 0.02 0.02 99 1012.1
20260508104214 34 80 4.0 5.0 0.00 0.02 0.02 99 1012.0
20260508103209 32 83 4.0 6.0 0.00 0.02 0.02 99 1012.0
20260508102204 32 82 4.0 5.0 0.00 0.02 0.02 99 1012.1
20260508101205 32 83 5.0 6.0 0.00 0.02 0.02 99 1012.0
20260508100200 31 79 4.0 6.0 0.00 0.02 0.02 99 1012.1
20260508095159 31 80 6.0 6.0 0.00 0.02 0.02 99 1011.7
20260508094158 30 77 4.0 6.0 0.00 0.02 0.02 99 1011.9
20260508093153 30 70 5.0 6.0 0.00 0.02 0.02 99 1011.9
20260508092149 31 66 5.0 6.0 0.00 0.02 0.02 99 1011.9
20260508091148 31 52 2.0 5.0 0.00 0.02 0.02 99 1012.1
20260508090143 31 58 4.0 5.0 0.00 0.02 0.02 99 1012.3
20260508085143 32 80 3.0 5.0 0.00 0.02 0.02 99 1012.0
20260508084142 32 73 4.0 6.0 0.00 0.02 0.02 99 1011.7
20260508083137 32 79 4.0 5.0 0.00 0.02 0.02 99 1011.9
20260508082135 32 68 4.0 5.0 0.00 0.02 0.02 99 1012.0
20260508081135 32 71 4.0 4.0 0.00 0.02 0.02 99 1012.0
20260508080131 32 73 4.0 5.0 0.00 0.02 0.02 99 1011.8
20260508075129 32 75 3.0 4.0 0.00 0.02 0.02 99 1011.8
20260508074124 32 81 3.0 5.0 0.00 0.02 0.02 99 1011.7
20260508073119 33 85 2.0 5.0 0.02 0.02 0.02 99 1011.8
20260508072118 33 60 4.0 4.0 0.00 0.02 0.02 99 1011.8
20260508071113 32 85 3.0 4.0 0.00 0.02 0.02 99 1011.9
20260508070109 32 63 3.0 4.0 0.00 0.02 0.02 99 1012.0
20260508065110 33 77 2.0 5.0 0.00 0.02 0.02 99 1011.9
20260508064105 35 79 3.0 4.0 0.00 0.02 0.02 99 1011.9
20260508063100 35 83 3.0 5.0 0.00 0.02 0.02 99 1011.7
20260508062059 34 81 5.0 5.0 0.00 0.02 0.02 99 1011.9
20260508061055 35 83 2.0 4.0 0.00 0.02 0.02 99 1011.6
20260508060054 35 94 3.0 4.0 0.00 0.02 0.02 99 1011.6
20260508055053 35 87 3.0 4.0 0.00 0.02 0.02 99 1011.6
20260508054053 35 63 3.0 4.0 0.00 0.02 0.02 99 1011.6
20260508053047 36 87 3.0 4.0 0.00 0.02 0.02 99 1011.6
20260508052047 36 79 4.0 5.0 0.00 0.02 0.02 99 1011.7
20260508051044 35 93 4.0 5.0 0.00 0.02 0.02 99 1011.7
20260508050044 36 88 5.0 6.0 0.00 0.02 0.02 99 1011.5
20260508045043 37 84 3.0 4.0 0.00 0.02 0.02 99 1011.5
20260508044042 37 94 3.0 4.0 0.00 0.02 0.02 99 1011.6
20260508043037 37 91 3.0 4.0 0.00 0.02 0.02 99 1011.5
20260508042036 38 77 4.0 6.0 0.00 0.02 0.02 99 1012.0
20260508041035 38 70 3.0 6.0 0.09 0.02 0.02 99 1012.0
20260508040035 38 62 4.0 5.0 0.17 0.00 0.00 99 1012.3
20260508035035 38 119 1.0 4.0 0.05 0.16 0.16 99 1012.5
20260508034034 38 52 3.0 4.0 0.05 0.15 0.15 99 1012.4
20260508033030 38 102 2.0 3.0 0.12 0.14 0.14 98 1012.3
20260508032030 39 81 2.0 6.0 0.26 0.11 0.11 97 1011.8
20260508031028 40 23 3.0 9.0 0.33 0.07 0.07 96 1012.1
20260508030023 42 66 5.0 6.0 0.07 0.01 0.01 90 1011.8
20260508025022 44 357 2.0 6.0 0.00 0.00 0.00 79 1011.1
20260508024020 45 320 4.0 8.0 0.00 0.00 0.00 76 1010.7
20260508023015 46 11 2.0 5.0 0.00 0.00 0.00 70 1010.4
20260508022013 46 77 4.0 5.0 0.00 0.00 0.00 70 1010.5
20260508021010 46 41 2.0 4.0 0.00 0.00 0.00 67 1010.5
20260508020006 47 10 2.0 4.0 0.00 0.00 0.00 68 1010.3
20260508015000 47 57 4.0 6.0 0.00 0.00 0.00 67 1010.3
20260508013958 47 329 2.0 4.0 0.00 0.00 0.00 66 1010.1
20260508012958 47 333 2.0 3.0 0.00 0.00 0.00 66 1010.4
20260508011958 47 60 2.0 3.0 0.00 0.00 0.00 67 1009.9
20260508010953 47 340 1.0 3.0 0.00 0.00 0.00 65 1010.0
20260508005953 48 32 3.0 4.0 0.00 0.00 0.00 64 1009.8
20260508004952 48 69 3.0 4.0 0.00 0.00 0.00 68 1009.7
20260508003951 48 28 2.0 3.0 0.00 0.00 0.00 62 1009.8
20260508002951 48 34 2.0 3.0 0.00 0.00 0.00 61 1009.7
20260508001949 48 10 1.0 3.0 0.00 0.00 0.00 61 1009.3
20260508000948 49 29 2.0 3.0 0.00 0.00 0.00 59 1009.2